Location: Allison's Woods
(35.8809°N, 80.8140°W)
Time: 00:25:11
(UTC-05:00)

Iridium 39 - Visible Passes

Search period start: 26 February 2017 00:00
Search period end: 08 March 2017 00:00
Orbit: 725 x 751 km, 86.4° (Epoch: 25 February)

Date Brightness Start Highest point End Pass type
(mag) Time Alt. Az. Time Alt. Az. Time Alt. Az.
26 Feb 5.9 06:15:49 10° N 06:20:53 75° W 06:25:57 10° S visible
26 Feb 7.7 19:03:37 10° SSW 19:08:10 36° W 19:12:46 10° NNW visible
27 Feb 7.3 05:30:54 10° NNE 05:35:44 42° E 05:40:32 10° SSE visible
28 Feb 8.8 04:47:03 10° NE 04:50:20 17° ENE 04:53:35 10° ESE visible
28 Feb 6.3 06:25:36 10° NNW 06:30:25 44° W 06:35:13 10° SSW visible
28 Feb 8.7 19:14:03 10° SW 19:17:53 22° W 19:21:47 10° NNW visible
01 Mar 6.3 05:40:18 10° N 05:45:23 71° E 05:50:26 10° S visible
02 Mar 8.1 04:55:47 10° NNE 05:00:06 27° E 05:04:24 10° SE visible
02 Mar 9.2 19:25:16 10° WSW 19:27:42 14° WNW 19:30:10 10° NW visible
03 Mar 9.3 04:13:30 10° ENE 04:14:34 11° ENE 04:15:37 10° E visible
03 Mar 5.9 05:49:53 10° N 05:54:58 71° W 06:00:00 10° S visible
04 Mar 7.1 05:04:57 10° NNE 05:09:49 44° E 05:14:39 10° SSE visible
05 Mar 8.7 04:21:00 10° NE 04:24:25 18° ENE 04:27:49 10° ESE visible
05 Mar 6.3 05:59:42 10° NNW 06:04:28 42° W 06:09:13 10° SSW visible
05 Mar 8.9 18:48:13 10° SW 18:51:58 21° W 18:55:46 10° NNW visible
06 Mar 6.1 05:14:22 10° N 05:19:27 75° E 05:24:30 10° S visible
07 Mar 7.9 04:29:48 10° NNE 04:34:12 29° E 04:38:33 10° SE visible
07 Mar 6.9 06:09:46 10° NNW 06:13:55 26° W 06:18:03 10° SW visible
07 Mar 9.2 18:59:32 10° WSW 19:01:47 13° WNW 19:04:02 10° NW visible
